Weather History for Aberdeen, SD

Change the Weather History Date:

Saturday, September 6, 2014

  Actual Average Record
Temperature  
Mean Temperature 58 °F 63 °F  
Max Temperature 78 °F 76 °F 103 °F (1970)
Min Temperature 38 °F 50 °F 32 °F (1956)
Degree Days  
Heating Degree Days 7 4  
Month to date heating degree days 17 22  
Since 1 July heating degree days 79 73  
Cooling Degree Days 0 2  
Month to date cooling degree days 1 16  
Year to date cooling degree days 305 499  
Growing Degree Days 8 (Base 50)    
Moisture  
Dew Point 47 °F    
Average Humidity 66    
Maximum Humidity 100    
Minimum Humidity 31    
Precipitation  
Precipitation 0.00 in 0.08 in 1.20 in (1992)
Month to date precipitation 0.01 0.45  
Year to date precipitation 15.64 16.74  
Sea Level Pressure  
Sea Level Pressure 30.18 in    
Wind  
Wind Speed 8 mph (SSW)    
Max Wind Speed 15 mph    
Max Gust Speed 21 mph    
Visibility 10 miles    
Events      
T = Trace of Precipitation, MM = Missing Value Source: NWS Daily Summary

Daily Weather History Graph

Daily Weather History Graph

Search for Another Location

Airport:

Trip Planner

Search our weather history database for the weather conditions in past years. The results will help you decide how hot, cold, wet, or windy it might be!

Date:

Astronomy

Sep. 06, 2014 Rise Set
Actual Time 7:01 AM CDT 8:01 PM CDT
Civil Twilight 6:30 AM CDT 8:31 PM CDT
Nautical Twilight 5:54 AM CDT 9:07 PM CDT
Astronomical Twilight 5:16 AM CDT 9:45 PM CDT
Moon 6:23 PM CDT (9/6) 3:58 AM CDT (9/6)
Length of Visible Light 14h 00m
Length of Day
13h 00m
Waxing Gibbous, 92% of the Moon is Illuminated
Sep 6
Waxing Gibbous
Sep 8
Full
Sep 15
Last Quarter
Sep 24
New
Oct 1
First Quarter

Hourly Weather History & Observations

Time (CDT) Temp. Windchill Dew Point Humidity Pressure Visibility Wind Dir Wind Speed Gust Speed Precip Events Conditions
12:53 AM 46.0 °F 43.1 °F 45.0 °F 96% 30.22 in 10.0 mi SW 5.8 mph - N/A   Clear
1:53 AM 46.0 °F 42.5 °F 44.1 °F 93% 30.22 in 10.0 mi SW 6.9 mph - N/A   Clear
3:53 AM 42.8 °F 39.3 °F 42.8 °F 100% 30.21 in 10.0 mi SW 5.8 mph - N/A   Clear
4:53 AM 42.8 °F 39.3 °F 42.8 °F 100% 30.22 in 10.0 mi South 5.8 mph - N/A   Clear
5:53 AM 42.1 °F 37.7 °F 41.0 °F 96% 30.23 in 10.0 mi South 6.9 mph - N/A   Clear
6:53 AM 39.2 °F 35.9 °F 39.2 °F 100% 30.22 in 10.0 mi East 4.6 mph - N/A   Clear
7:53 AM 43.0 °F 41.3 °F 43.0 °F 100% 30.25 in 10.0 mi SSE 3.5 mph - N/A   Clear
8:53 AM 51.8 °F - 46.4 °F 82% 30.23 in 10.0 mi South 3.5 mph - N/A   Clear
9:53 AM 57.0 °F - 51.1 °F 81% 30.24 in 10.0 mi SW 5.8 mph - N/A   Clear
10:53 AM 64.0 °F - 53.1 °F 67% 30.24 in 10.0 mi SW 6.9 mph - N/A   Clear
11:53 AM 71.1 °F - 51.1 °F 49% 30.22 in 10.0 mi WSW 9.2 mph - N/A   Clear
12:53 PM 75.0 °F - 42.1 °F 31% 30.20 in 10.0 mi WSW 16.1 mph - N/A   Clear
1:53 PM 75.0 °F - 43.0 °F 32% 30.18 in 10.0 mi West 11.5 mph - N/A   Clear
2:53 PM 75.9 °F - 46.0 °F 35% 30.16 in 10.0 mi SW 8.1 mph - N/A   Clear
3:53 PM 77.0 °F - 45.0 °F 32% 30.15 in 10.0 mi West 10.4 mph - N/A   Clear
4:53 PM 77.0 °F - 46.0 °F 33% 30.13 in 10.0 mi SW 9.2 mph - N/A   Clear
5:53 PM 77.0 °F - 50.0 °F 39% 30.11 in 10.0 mi SW 5.8 mph - N/A   Clear
6:53 PM 73.9 °F - 55.9 °F 53% 30.10 in 10.0 mi South 5.8 mph - N/A   Clear
7:53 PM 64.0 °F - 55.0 °F 73% 30.09 in 10.0 mi South 9.2 mph - N/A   Clear
8:53 PM 60.1 °F - 51.1 °F 72% 30.10 in 10.0 mi South 9.2 mph - N/A   Clear
9:53 PM 60.1 °F - 46.9 °F 62% 30.10 in 10.0 mi South 9.2 mph - N/A   Clear
10:53 PM 57.9 °F - 46.9 °F 67% 30.09 in 10.0 mi South 11.5 mph - N/A   Clear
11:53 PM 55.9 °F - 48.0 °F 75% 30.08 in 10.0 mi South 10.4 mph - N/A   Clear